Year,Month,Day,Hour,Minute,Value (Times are PST for temperature in C)
2010,07,09,00,00,20.80
2010,07,09,00,01,20.80
2010,07,09,00,02,20.70
2010,07,09,00,03,20.70
2010,07,09,00,04,20.70
2010,07,09,00,05,20.70
2010,07,09,00,06,20.70
2010,07,09,00,07,20.70
2010,07,09,00,08,20.60
2010,07,09,00,09,20.60
2010,07,09,00,10,20.60
2010,07,09,00,11,20.50
2010,07,09,00,12,20.50
2010,07,09,00,13,20.50
2010,07,09,00,14,20.50
2010,07,09,00,15,20.50
2010,07,09,00,16,20.50
2010,07,09,00,17,20.40
2010,07,09,00,18,20.40
2010,07,09,00,19,20.40
2010,07,09,00,20,20.30
2010,07,09,00,21,20.30
2010,07,09,00,22,20.30
2010,07,09,00,23,20.20
2010,07,09,00,24,20.20
2010,07,09,00,25,20.20
2010,07,09,00,26,20.20
2010,07,09,00,27,20.20
2010,07,09,00,28,20.20
2010,07,09,00,29,20.10
2010,07,09,00,30,20.10
2010,07,09,00,31,20.10
2010,07,09,00,32,20.10
2010,07,09,00,33,20.10
2010,07,09,00,34,20.10
2010,07,09,00,35,20.00
2010,07,09,00,36,19.90
2010,07,09,00,37,19.90
2010,07,09,00,38,19.90
2010,07,09,00,39,19.90
2010,07,09,00,40,19.90
2010,07,09,00,41,19.90
2010,07,09,00,42,19.90
2010,07,09,00,43,19.80
2010,07,09,00,44,19.80
2010,07,09,00,45,19.80
2010,07,09,00,46,19.80
2010,07,09,00,47,19.80
2010,07,09,00,48,19.80
2010,07,09,00,49,19.80
2010,07,09,00,50,19.80
2010,07,09,00,51,19.80
2010,07,09,00,52,19.80
2010,07,09,00,53,19.80
2010,07,09,00,54,19.80
2010,07,09,00,55,19.80
2010,07,09,00,56,19.80
2010,07,09,00,57,19.80
2010,07,09,00,58,19.80
2010,07,09,00,59,19.80
2010,07,09,01,00,19.80
2010,07,09,01,01,19.70
2010,07,09,01,02,19.70
2010,07,09,01,03,19.70
2010,07,09,01,04,19.70
2010,07,09,01,05,19.70
2010,07,09,01,06,19.70
2010,07,09,01,07,19.70
2010,07,09,01,08,19.70
2010,07,09,01,09,19.70
2010,07,09,01,10,19.70
2010,07,09,01,11,19.70
2010,07,09,01,12,19.70
2010,07,09,01,13,19.70
2010,07,09,01,14,19.70
2010,07,09,01,15,19.80
2010,07,09,01,16,19.80
2010,07,09,01,17,19.80
2010,07,09,01,18,19.80
2010,07,09,01,19,19.80
2010,07,09,01,20,19.80
2010,07,09,01,21,19.70
2010,07,09,01,22,19.70
2010,07,09,01,23,19.70
2010,07,09,01,24,19.70
2010,07,09,01,25,19.70
2010,07,09,01,26,19.70
2010,07,09,01,27,19.70
2010,07,09,01,28,19.70
2010,07,09,01,29,19.70
2010,07,09,01,30,19.80
2010,07,09,01,31,19.80
2010,07,09,01,32,19.90
2010,07,09,01,33,19.90
2010,07,09,01,34,19.90
2010,07,09,01,35,19.90
2010,07,09,01,36,19.90
2010,07,09,01,37,19.90
2010,07,09,01,38,19.90
2010,07,09,01,39,19.90
2010,07,09,01,40,19.90
2010,07,09,01,41,19.80
2010,07,09,01,42,19.80
2010,07,09,01,43,19.80
2010,07,09,01,44,19.80
2010,07,09,01,45,19.70
2010,07,09,01,46,19.70
2010,07,09,01,47,19.70
2010,07,09,01,48,19.60
2010,07,09,01,49,19.60
2010,07,09,01,50,19.50
2010,07,09,01,51,19.40
2010,07,09,01,52,19.40
2010,07,09,01,53,19.30
2010,07,09,01,54,19.30
2010,07,09,01,55,19.20
2010,07,09,01,56,19.20
2010,07,09,01,57,19.20
2010,07,09,01,58,19.10
2010,07,09,01,59,19.10
2010,07,09,02,00,19.10
2010,07,09,02,01,19.10
2010,07,09,02,02,19.10
2010,07,09,02,03,19.10
2010,07,09,02,04,19.10
2010,07,09,02,05,19.10
2010,07,09,02,06,19.10
2010,07,09,02,07,19.00
2010,07,09,02,08,18.90
2010,07,09,02,09,18.90
2010,07,09,02,10,18.90
2010,07,09,02,11,18.90
2010,07,09,02,12,18.90
2010,07,09,02,13,18.90
2010,07,09,02,14,18.90
2010,07,09,02,15,18.90
2010,07,09,02,16,18.90
2010,07,09,02,17,18.90
2010,07,09,02,18,18.90
2010,07,09,02,19,18.90
2010,07,09,02,20,18.90
2010,07,09,02,21,18.90
2010,07,09,02,22,18.90
2010,07,09,02,23,18.90
2010,07,09,02,24,18.90
2010,07,09,02,25,18.80
2010,07,09,02,26,18.80
2010,07,09,02,27,18.80
2010,07,09,02,28,18.80
2010,07,09,02,29,18.80
2010,07,09,02,30,18.70
2010,07,09,02,31,18.70
2010,07,09,02,32,18.70
2010,07,09,02,33,18.70
2010,07,09,02,34,18.70
2010,07,09,02,35,18.70
2010,07,09,02,36,18.70
2010,07,09,02,37,18.60
2010,07,09,02,38,18.60
2010,07,09,02,39,18.60
2010,07,09,02,40,18.60
2010,07,09,02,41,18.60
2010,07,09,02,42,18.60
2010,07,09,02,43,18.60
2010,07,09,02,44,18.70
2010,07,09,02,45,18.70
2010,07,09,02,46,18.70
2010,07,09,02,47,18.70
2010,07,09,02,48,18.70
2010,07,09,02,49,18.70
2010,07,09,02,50,18.70
2010,07,09,02,51,18.70
2010,07,09,02,52,18.60
2010,07,09,02,53,18.60
2010,07,09,02,54,18.50
2010,07,09,02,55,18.50
2010,07,09,02,56,18.40
2010,07,09,02,57,18.40
2010,07,09,02,58,18.30
2010,07,09,02,59,18.30
2010,07,09,03,00,18.30
2010,07,09,03,01,18.30
2010,07,09,03,02,18.30
2010,07,09,03,03,18.30
2010,07,09,03,04,18.30
2010,07,09,03,05,18.20
2010,07,09,03,06,18.20
2010,07,09,03,07,18.20
2010,07,09,03,08,18.20
2010,07,09,03,09,18.10
2010,07,09,03,10,18.10
2010,07,09,03,11,18.10
2010,07,09,03,12,18.10
2010,07,09,03,13,18.00
2010,07,09,03,14,18.10
2010,07,09,03,15,18.10
2010,07,09,03,16,18.10
2010,07,09,03,17,18.10
2010,07,09,03,18,18.10
2010,07,09,03,19,18.00
2010,07,09,03,20,17.90
2010,07,09,03,21,17.90
2010,07,09,03,22,17.90
2010,07,09,03,23,17.90
2010,07,09,03,24,17.90
2010,07,09,03,25,17.90
2010,07,09,03,26,17.90
2010,07,09,03,27,17.90
2010,07,09,03,28,17.90
2010,07,09,03,29,17.90
2010,07,09,03,30,17.90
2010,07,09,03,31,17.90
2010,07,09,03,32,17.90
2010,07,09,03,33,17.90
2010,07,09,03,34,17.90
2010,07,09,03,35,17.90
2010,07,09,03,36,17.90
2010,07,09,03,37,17.90
2010,07,09,03,38,17.90
2010,07,09,03,39,17.90
2010,07,09,03,40,17.90
2010,07,09,03,41,17.90
2010,07,09,03,42,17.90
2010,07,09,03,43,17.90
2010,07,09,03,44,17.90
2010,07,09,03,45,17.80
2010,07,09,03,46,17.80
2010,07,09,03,47,17.80
2010,07,09,03,48,17.80
2010,07,09,03,49,17.80
2010,07,09,03,50,17.80
2010,07,09,03,51,17.70
2010,07,09,03,52,17.80
2010,07,09,03,53,17.80
2010,07,09,03,54,17.80
2010,07,09,03,55,17.80
2010,07,09,03,56,17.90
2010,07,09,03,57,17.90
2010,07,09,03,58,17.90
2010,07,09,03,59,17.90
2010,07,09,04,00,17.90
2010,07,09,04,01,17.90
2010,07,09,04,02,17.90
2010,07,09,04,03,17.90
2010,07,09,04,04,17.90
2010,07,09,04,05,17.80
2010,07,09,04,06,17.80
2010,07,09,04,07,17.80
2010,07,09,04,08,17.80
2010,07,09,04,09,17.70
2010,07,09,04,10,17.70
2010,07,09,04,11,17.70
2010,07,09,04,12,17.70
2010,07,09,04,13,17.70
2010,07,09,04,14,17.70
2010,07,09,04,15,17.70
2010,07,09,04,16,17.60
2010,07,09,04,17,17.60
2010,07,09,04,18,17.60
2010,07,09,04,19,17.60
2010,07,09,04,20,17.50
2010,07,09,04,21,17.50
2010,07,09,04,22,17.40
2010,07,09,04,23,17.30
2010,07,09,04,24,17.30
2010,07,09,04,25,17.30
2010,07,09,04,26,17.30
2010,07,09,04,27,17.30
2010,07,09,04,28,17.30
2010,07,09,04,29,17.30
2010,07,09,04,30,17.30
2010,07,09,04,31,17.30
2010,07,09,04,32,17.30
2010,07,09,04,33,17.30
2010,07,09,04,34,17.30
2010,07,09,04,35,17.30
2010,07,09,04,36,17.30
2010,07,09,04,37,17.30
2010,07,09,04,38,17.30
2010,07,09,04,39,17.30
2010,07,09,04,40,17.30
2010,07,09,04,41,17.30
2010,07,09,04,42,17.30
2010,07,09,04,43,17.30
2010,07,09,04,44,17.30
2010,07,09,04,45,17.30
2010,07,09,04,46,17.30
2010,07,09,04,47,17.30
2010,07,09,04,48,17.20
2010,07,09,04,49,17.20
2010,07,09,04,50,17.20
2010,07,09,04,51,17.20
2010,07,09,04,52,17.20
2010,07,09,04,53,17.20
2010,07,09,04,54,17.20
2010,07,09,04,55,17.20
2010,07,09,04,56,17.20
2010,07,09,04,57,17.10
2010,07,09,04,58,17.10
2010,07,09,04,59,17.10
2010,07,09,05,00,17.10
2010,07,09,05,01,17.00
2010,07,09,05,02,17.00
2010,07,09,05,03,17.00
2010,07,09,05,04,17.00
2010,07,09,05,05,17.00
2010,07,09,05,06,17.00
2010,07,09,05,07,17.00
2010,07,09,05,08,17.00
2010,07,09,05,09,17.00
2010,07,09,05,10,17.00
2010,07,09,05,11,17.00
2010,07,09,05,12,17.00
2010,07,09,05,13,17.00
2010,07,09,05,14,17.00
2010,07,09,05,15,17.00
2010,07,09,05,16,17.00
2010,07,09,05,17,16.90
2010,07,09,05,18,16.90
2010,07,09,05,19,16.90
2010,07,09,05,20,16.80
2010,07,09,05,21,16.70
2010,07,09,05,22,16.70
2010,07,09,05,23,16.70
2010,07,09,05,24,16.70
2010,07,09,05,25,16.60
2010,07,09,05,26,16.60
2010,07,09,05,27,16.50
2010,07,09,05,28,16.40
2010,07,09,05,29,16.40
2010,07,09,05,30,16.40
2010,07,09,05,31,16.40
2010,07,09,05,32,16.40
2010,07,09,05,33,16.40
2010,07,09,05,34,16.40
2010,07,09,05,35,16.40
2010,07,09,05,36,16.40
2010,07,09,05,37,16.40
2010,07,09,05,38,16.30
2010,07,09,05,39,16.30
2010,07,09,05,40,16.20
2010,07,09,05,41,16.20
2010,07,09,05,42,16.10
2010,07,09,05,43,16.10
2010,07,09,05,44,16.10
2010,07,09,05,45,16.10
2010,07,09,05,46,16.10
2010,07,09,05,47,16.00
2010,07,09,05,48,15.90
2010,07,09,05,49,15.90
2010,07,09,05,50,15.90
2010,07,09,05,51,16.00
2010,07,09,05,52,16.10
2010,07,09,05,53,16.10
2010,07,09,05,54,16.10
2010,07,09,05,55,16.10
2010,07,09,05,56,16.10
2010,07,09,05,57,16.10
2010,07,09,05,58,16.10
2010,07,09,05,59,16.10
2010,07,09,06,00,16.10
2010,07,09,06,01,16.10
2010,07,09,06,02,16.10
2010,07,09,06,03,16.10
2010,07,09,06,04,16.10
2010,07,09,06,05,16.10
2010,07,09,06,06,16.10
2010,07,09,06,07,16.10
2010,07,09,06,08,16.10
2010,07,09,06,09,16.10
2010,07,09,06,10,16.10
2010,07,09,06,11,16.10
2010,07,09,06,12,16.10
2010,07,09,06,13,16.10
2010,07,09,06,14,16.20
2010,07,09,06,15,16.20
2010,07,09,06,16,16.20
2010,07,09,06,17,16.20
2010,07,09,06,18,16.20
2010,07,09,06,19,16.20
2010,07,09,06,20,16.30
2010,07,09,06,21,16.30
2010,07,09,06,22,16.30
2010,07,09,06,23,16.30
2010,07,09,06,24,16.40
2010,07,09,06,25,16.40
2010,07,09,06,26,16.40
2010,07,09,06,27,16.40
2010,07,09,06,28,16.40
2010,07,09,06,29,16.40
2010,07,09,06,30,16.40
2010,07,09,06,31,16.60
2010,07,09,06,32,16.60
2010,07,09,06,33,16.60
2010,07,09,06,34,16.70
2010,07,09,06,35,16.70
2010,07,09,06,36,16.80
2010,07,09,06,37,16.90
2010,07,09,06,38,17.00
2010,07,09,06,39,17.00
2010,07,09,06,40,17.20
2010,07,09,06,41,17.30
2010,07,09,06,42,17.30
2010,07,09,06,43,17.30
2010,07,09,06,44,17.30
2010,07,09,06,45,17.30
2010,07,09,06,46,17.30
2010,07,09,06,47,17.30
2010,07,09,06,48,17.30
2010,07,09,06,49,17.30
2010,07,09,06,50,17.30
2010,07,09,06,51,17.30
2010,07,09,06,52,17.30
2010,07,09,06,53,17.30
2010,07,09,06,54,17.30
2010,07,09,06,55,17.30
2010,07,09,06,56,17.30
2010,07,09,06,57,17.30
2010,07,09,06,58,17.40
2010,07,09,06,59,17.40
2010,07,09,07,00,17.50
2010,07,09,07,01,17.60
2010,07,09,07,02,17.70
2010,07,09,07,03,17.70
2010,07,09,07,04,17.80
2010,07,09,07,05,17.90
2010,07,09,07,06,17.90
2010,07,09,07,07,18.00
2010,07,09,07,08,18.10
2010,07,09,07,09,18.20
2010,07,09,07,10,18.30
2010,07,09,07,11,18.40
2010,07,09,07,12,18.50
2010,07,09,07,13,18.60
2010,07,09,07,14,18.70
2010,07,09,07,15,18.70
2010,07,09,07,16,18.80
2010,07,09,07,17,18.90
2010,07,09,07,18,18.90
2010,07,09,07,19,19.00
2010,07,09,07,20,19.10
2010,07,09,07,21,19.10
2010,07,09,07,22,19.20
2010,07,09,07,23,19.20
2010,07,09,07,24,19.30
2010,07,09,07,25,19.30
2010,07,09,07,26,19.40
2010,07,09,07,27,19.40
2010,07,09,07,28,19.40
2010,07,09,07,29,19.50
2010,07,09,07,30,19.50
2010,07,09,07,31,19.60
2010,07,09,07,32,19.70
2010,07,09,07,33,19.70
2010,07,09,07,34,19.80
2010,07,09,07,35,19.90
2010,07,09,07,36,20.00
2010,07,09,07,37,20.10
2010,07,09,07,38,20.20
2010,07,09,07,39,20.20
2010,07,09,07,40,20.30
2010,07,09,07,41,20.50
2010,07,09,07,42,20.50
2010,07,09,07,43,20.70
2010,07,09,07,44,20.80
2010,07,09,07,45,20.90
2010,07,09,07,46,21.00
2010,07,09,07,47,21.00
2010,07,09,07,48,21.10
2010,07,09,07,49,21.20
2010,07,09,07,50,21.30
2010,07,09,07,51,21.40
2010,07,09,07,52,21.50
2010,07,09,07,53,21.60
2010,07,09,07,54,21.70
2010,07,09,07,55,21.70
2010,07,09,07,56,21.80
2010,07,09,07,57,21.90
2010,07,09,07,58,21.90
2010,07,09,07,59,22.00
2010,07,09,08,00,22.00
2010,07,09,08,01,22.10
2010,07,09,08,02,22.20
2010,07,09,08,03,22.30
2010,07,09,08,04,22.40
2010,07,09,08,05,22.50
2010,07,09,08,06,22.50
2010,07,09,08,07,22.60
2010,07,09,08,08,22.70
2010,07,09,08,09,22.80
2010,07,09,08,10,22.80
2010,07,09,08,11,22.90
2010,07,09,08,12,23.00
2010,07,09,08,13,23.20
2010,07,09,08,14,23.20
2010,07,09,08,15,23.30
2010,07,09,08,16,23.30
2010,07,09,08,17,23.40
2010,07,09,08,18,23.50
2010,07,09,08,19,23.60
2010,07,09,08,20,23.70
2010,07,09,08,21,23.70
2010,07,09,08,22,23.80
2010,07,09,08,23,23.90
2010,07,09,08,24,24.00
2010,07,09,08,25,24.10
2010,07,09,08,26,24.20
2010,07,09,08,27,24.40
2010,07,09,08,28,24.40
2010,07,09,08,29,24.50
2010,07,09,08,30,24.50
2010,07,09,08,31,24.60
2010,07,09,08,32,24.70
2010,07,09,08,33,24.80
2010,07,09,08,34,24.90
2010,07,09,08,35,25.00
2010,07,09,08,36,25.00
2010,07,09,08,37,25.10
2010,07,09,08,38,25.20
2010,07,09,08,39,25.30
2010,07,09,08,40,25.30
2010,07,09,08,41,25.40
2010,07,09,08,42,25.50
2010,07,09,08,43,25.50
2010,07,09,08,44,25.60
2010,07,09,08,45,25.70
2010,07,09,08,46,25.80
2010,07,09,08,47,25.80
2010,07,09,08,48,25.90
2010,07,09,08,49,25.90
2010,07,09,08,50,26.00
2010,07,09,08,51,26.00
2010,07,09,08,52,26.10
2010,07,09,08,53,26.10
2010,07,09,08,54,26.10
2010,07,09,08,55,26.10
2010,07,09,08,56,26.20
2010,07,09,08,57,26.20
2010,07,09,08,58,26.20
2010,07,09,08,59,26.20
2010,07,09,09,00,26.20
2010,07,09,09,01,26.30
2010,07,09,09,02,26.30
2010,07,09,09,03,26.30
2010,07,09,09,04,26.30
2010,07,09,09,05,26.30
2010,07,09,09,06,26.30
2010,07,09,09,07,26.40
2010,07,09,09,08,26.40
2010,07,09,09,09,26.40
2010,07,09,09,10,26.40
2010,07,09,09,11,26.40
2010,07,09,09,12,26.40
2010,07,09,09,13,26.40
2010,07,09,09,14,26.40
2010,07,09,09,15,26.60
2010,07,09,09,16,26.60
2010,07,09,09,17,26.60
2010,07,09,09,18,26.60
2010,07,09,09,19,26.60
2010,07,09,09,20,26.60
2010,07,09,09,21,26.60
2010,07,09,09,22,26.60
2010,07,09,09,23,26.60
2010,07,09,09,24,26.60
2010,07,09,09,25,26.40
2010,07,09,09,26,26.20
2010,07,09,09,27,26.00
2010,07,09,09,28,25.70
2010,07,09,09,29,25.50
2010,07,09,09,30,25.40
2010,07,09,09,31,25.30
2010,07,09,09,32,25.00
2010,07,09,09,33,24.70
2010,07,09,09,34,24.40
2010,07,09,09,35,24.40
2010,07,09,09,36,24.30
2010,07,09,09,37,24.40
2010,07,09,09,38,24.50
2010,07,09,09,39,24.50
2010,07,09,09,40,24.50
2010,07,09,09,41,24.40
2010,07,09,09,42,24.20
2010,07,09,09,43,24.00
2010,07,09,09,44,23.80
2010,07,09,09,45,23.70
2010,07,09,09,46,23.70
2010,07,09,09,47,23.70
2010,07,09,09,48,23.70
2010,07,09,09,49,23.70
2010,07,09,09,50,23.50
2010,07,09,09,51,23.40
2010,07,09,09,52,23.30
2010,07,09,09,53,23.20
2010,07,09,09,54,23.20
2010,07,09,09,55,23.20
2010,07,09,09,56,23.10
2010,07,09,09,57,23.10
2010,07,09,09,58,23.10
2010,07,09,09,59,23.10
2010,07,09,10,00,23.20
2010,07,09,10,01,23.20
2010,07,09,10,02,23.20
2010,07,09,10,03,23.40
2010,07,09,10,04,23.60
2010,07,09,10,05,23.70
2010,07,09,10,06,23.80
2010,07,09,10,07,23.90
2010,07,09,10,08,23.90
2010,07,09,10,09,24.10
2010,07,09,10,10,24.10
2010,07,09,10,11,24.30
2010,07,09,10,12,24.40
2010,07,09,10,13,24.50
2010,07,09,10,14,24.70
2010,07,09,10,15,24.90
2010,07,09,10,16,24.90
2010,07,09,10,17,25.10
2010,07,09,10,18,25.20
2010,07,09,10,19,25.20
2010,07,09,10,20,25.30
2010,07,09,10,21,25.20
2010,07,09,10,22,25.00
2010,07,09,10,23,24.80
2010,07,09,10,24,24.80
2010,07,09,10,25,24.80
2010,07,09,10,26,24.70
2010,07,09,10,27,24.70
2010,07,09,10,28,24.60
2010,07,09,10,29,24.60
2010,07,09,10,30,24.50
2010,07,09,10,31,24.50
2010,07,09,10,32,24.40
2010,07,09,10,33,24.50
2010,07,09,10,34,24.60
2010,07,09,10,35,24.70
2010,07,09,10,36,24.80
2010,07,09,10,37,24.80
2010,07,09,10,38,24.80
2010,07,09,10,39,24.80
2010,07,09,10,40,24.80
2010,07,09,10,41,24.80
2010,07,09,10,42,24.80
2010,07,09,10,43,24.90
2010,07,09,10,44,25.00
2010,07,09,10,45,25.10
2010,07,09,10,46,25.20
2010,07,09,10,47,25.20
2010,07,09,10,48,25.30
2010,07,09,10,49,25.40
2010,07,09,10,50,25.50
2010,07,09,10,51,25.60
2010,07,09,10,52,25.60
2010,07,09,10,53,25.60
2010,07,09,10,54,25.60
2010,07,09,10,55,25.50
2010,07,09,10,56,25.40
2010,07,09,10,57,25.30
2010,07,09,10,58,25.30
2010,07,09,10,59,25.30
2010,07,09,11,00,25.40
2010,07,09,11,01,25.40
2010,07,09,11,02,25.40
2010,07,09,11,03,25.40
2010,07,09,11,04,25.30
2010,07,09,11,05,25.30
2010,07,09,11,06,25.30
2010,07,09,11,07,25.30
2010,07,09,11,08,25.30
2010,07,09,11,09,25.20
2010,07,09,11,10,25.20
2010,07,09,11,11,25.20
2010,07,09,11,12,25.30
2010,07,09,11,13,25.30
2010,07,09,11,14,25.40
2010,07,09,11,15,25.40
2010,07,09,11,16,25.40
2010,07,09,11,17,25.40
2010,07,09,11,18,25.50
2010,07,09,11,19,25.50
2010,07,09,11,20,25.40
2010,07,09,11,21,25.30
2010,07,09,11,22,25.30
2010,07,09,11,23,25.20
2010,07,09,11,24,25.20
2010,07,09,11,25,25.10
2010,07,09,11,26,25.10
2010,07,09,11,27,25.10
2010,07,09,11,28,25.10
2010,07,09,11,29,25.10
2010,07,09,11,30,25.00
2010,07,09,11,31,25.00
2010,07,09,11,32,24.90
2010,07,09,11,33,25.00
2010,07,09,11,34,25.10
2010,07,09,11,35,25.20
2010,07,09,11,36,25.30
2010,07,09,11,37,25.40
2010,07,09,11,38,25.40
2010,07,09,11,39,25.50
2010,07,09,11,40,25.70
2010,07,09,11,41,25.70
2010,07,09,11,42,25.70
2010,07,09,11,43,25.70
2010,07,09,11,44,25.70
2010,07,09,11,45,25.70
2010,07,09,11,46,25.60
2010,07,09,11,47,25.60
2010,07,09,11,48,25.60
2010,07,09,11,49,25.60
2010,07,09,11,50,25.60
2010,07,09,11,51,25.60
2010,07,09,11,52,25.70
2010,07,09,11,53,25.80
2010,07,09,11,54,25.80
2010,07,09,11,55,25.90
2010,07,09,11,56,25.90
2010,07,09,11,57,25.90
2010,07,09,11,58,25.90
2010,07,09,11,59,25.80
2010,07,09,12,00,25.90
2010,07,09,12,01,25.90
2010,07,09,12,02,26.00
2010,07,09,12,03,26.10
2010,07,09,12,04,26.10
2010,07,09,12,05,26.20
2010,07,09,12,06,26.20
2010,07,09,12,07,26.40
2010,07,09,12,08,26.60
2010,07,09,12,09,26.60
2010,07,09,12,10,26.60
2010,07,09,12,11,26.60
2010,07,09,12,12,26.60
2010,07,09,12,13,26.60
2010,07,09,12,14,26.60
2010,07,09,12,15,26.60
2010,07,09,12,16,26.60
2010,07,09,12,17,26.60
2010,07,09,12,18,26.60
2010,07,09,12,19,26.60
2010,07,09,12,20,26.50
2010,07,09,12,21,26.40
2010,07,09,12,22,26.40
2010,07,09,12,23,26.40
2010,07,09,12,24,26.40
2010,07,09,12,25,26.50
2010,07,09,12,26,26.60
2010,07,09,12,27,26.60
2010,07,09,12,28,26.40
2010,07,09,12,29,26.50
2010,07,09,12,30,26.50
2010,07,09,12,31,26.60
2010,07,09,12,32,26.60
2010,07,09,12,33,26.50
2010,07,09,12,34,26.50
2010,07,09,12,35,26.60
2010,07,09,12,36,26.70
2010,07,09,12,37,26.80
2010,07,09,12,38,26.80
2010,07,09,12,39,26.80
2010,07,09,12,40,26.80
2010,07,09,12,41,26.80
2010,07,09,12,42,26.80
2010,07,09,12,43,26.80
2010,07,09,12,44,26.80
2010,07,09,12,45,26.90
2010,07,09,12,46,26.90
2010,07,09,12,47,26.90
2010,07,09,12,48,26.90
2010,07,09,12,49,26.80
2010,07,09,12,50,26.80
2010,07,09,12,51,26.70
2010,07,09,12,52,26.70
2010,07,09,12,53,26.80
2010,07,09,12,54,26.80
2010,07,09,12,55,26.70
2010,07,09,12,56,26.70
2010,07,09,12,57,26.80
2010,07,09,12,58,26.80
2010,07,09,12,59,26.80
2010,07,09,13,00,26.80
2010,07,09,13,01,26.80
2010,07,09,13,02,26.90
2010,07,09,13,03,27.00
2010,07,09,13,04,27.10
2010,07,09,13,05,27.10
2010,07,09,13,06,27.20
2010,07,09,13,07,27.30
2010,07,09,13,08,27.30
2010,07,09,13,09,27.40
2010,07,09,13,10,27.50
2010,07,09,13,11,27.50
2010,07,09,13,12,27.50
2010,07,09,13,13,27.60
2010,07,09,13,14,27.60
2010,07,09,13,15,27.60
2010,07,09,13,16,27.70
2010,07,09,13,17,27.80
2010,07,09,13,18,27.70
2010,07,09,13,19,27.70
2010,07,09,13,20,27.70
2010,07,09,13,21,27.70
2010,07,09,13,22,27.60
2010,07,09,13,23,27.60
2010,07,09,13,24,27.60
2010,07,09,13,25,27.50
2010,07,09,13,26,27.40
2010,07,09,13,27,27.50
2010,07,09,13,28,27.60
2010,07,09,13,29,27.50
2010,07,09,13,30,27.40
2010,07,09,13,31,27.40
2010,07,09,13,32,27.50
2010,07,09,13,33,27.60
2010,07,09,13,34,27.60
2010,07,09,13,35,27.60
2010,07,09,13,36,27.70
2010,07,09,13,37,27.80
2010,07,09,13,38,27.70
2010,07,09,13,39,27.60
2010,07,09,13,40,27.40
2010,07,09,13,41,27.30
2010,07,09,13,42,27.30
2010,07,09,13,43,27.40
2010,07,09,13,44,27.40
2010,07,09,13,45,27.40
2010,07,09,13,46,27.50
2010,07,09,13,47,27.60
2010,07,09,13,48,27.80
2010,07,09,13,49,27.90
2010,07,09,13,50,28.00
2010,07,09,13,51,28.10
2010,07,09,13,52,28.10
2010,07,09,13,53,28.10
2010,07,09,13,54,28.10
2010,07,09,13,55,28.20
2010,07,09,13,56,28.10
2010,07,09,13,57,28.10
2010,07,09,13,58,28.00
2010,07,09,13,59,28.10
2010,07,09,14,00,28.20
2010,07,09,14,01,28.20
2010,07,09,14,02,28.30
2010,07,09,14,03,28.10
2010,07,09,14,04,28.10
2010,07,09,14,05,28.00
2010,07,09,14,06,28.00
2010,07,09,14,07,28.00
2010,07,09,14,08,28.00
2010,07,09,14,09,28.00
2010,07,09,14,10,27.90
2010,07,09,14,11,27.90
2010,07,09,14,12,27.90
2010,07,09,14,13,27.90
2010,07,09,14,14,27.80
2010,07,09,14,15,27.70
2010,07,09,14,16,27.70
2010,07,09,14,17,27.60
2010,07,09,14,18,27.60
2010,07,09,14,19,27.70
2010,07,09,14,20,27.70
2010,07,09,14,21,27.80
2010,07,09,14,22,27.90
2010,07,09,14,23,28.00
2010,07,09,14,24,28.00
2010,07,09,14,25,27.90
2010,07,09,14,26,27.80
2010,07,09,14,27,27.80
2010,07,09,14,28,27.80
2010,07,09,14,29,27.80
2010,07,09,14,30,27.70
2010,07,09,14,31,27.70
2010,07,09,14,32,27.70
2010,07,09,14,33,27.80
2010,07,09,14,34,27.70
2010,07,09,14,35,27.60
2010,07,09,14,36,27.60
2010,07,09,14,37,27.60
2010,07,09,14,38,27.70
2010,07,09,14,39,27.70
2010,07,09,14,40,27.60
2010,07,09,14,41,27.60
2010,07,09,14,42,27.50
2010,07,09,14,43,27.60
2010,07,09,14,44,27.60
2010,07,09,14,45,27.60
2010,07,09,14,46,27.60
2010,07,09,14,47,27.60
2010,07,09,14,48,27.70
2010,07,09,14,49,27.70
2010,07,09,14,50,27.70
2010,07,09,14,51,27.70
2010,07,09,14,52,27.80
2010,07,09,14,53,27.80
2010,07,09,14,54,27.90
2010,07,09,14,55,28.00
2010,07,09,14,56,28.00
2010,07,09,14,57,28.10
2010,07,09,14,58,28.10
2010,07,09,14,59,28.20
2010,07,09,15,00,28.30
2010,07,09,15,01,28.30
2010,07,09,15,02,28.40
2010,07,09,15,03,28.40
2010,07,09,15,04,28.30
2010,07,09,15,05,28.20
2010,07,09,15,06,28.10
2010,07,09,15,07,27.90
2010,07,09,15,08,27.70
2010,07,09,15,09,27.40
2010,07,09,15,10,27.40
2010,07,09,15,11,27.40
2010,07,09,15,12,27.60
2010,07,09,15,13,27.70
2010,07,09,15,14,27.80
2010,07,09,15,15,27.90
2010,07,09,15,16,27.90
2010,07,09,15,17,27.90
2010,07,09,15,18,27.90
2010,07,09,15,19,27.90
2010,07,09,15,20,27.90
2010,07,09,15,21,28.00
2010,07,09,15,22,28.00
2010,07,09,15,23,28.00
2010,07,09,15,24,28.00
2010,07,09,15,25,28.10
2010,07,09,15,26,28.20
2010,07,09,15,27,28.20
2010,07,09,15,28,28.30
2010,07,09,15,29,28.30
2010,07,09,15,30,28.30
2010,07,09,15,31,28.30
2010,07,09,15,32,28.20
2010,07,09,15,33,28.20
2010,07,09,15,34,28.10
2010,07,09,15,35,28.00
2010,07,09,15,36,27.90
2010,07,09,15,37,27.70
2010,07,09,15,38,27.60
2010,07,09,15,39,27.60
2010,07,09,15,40,27.60
2010,07,09,15,41,27.60
2010,07,09,15,42,27.60
2010,07,09,15,43,27.70
2010,07,09,15,44,27.70
2010,07,09,15,45,27.70
2010,07,09,15,46,27.80
2010,07,09,15,47,27.80
2010,07,09,15,48,27.80
2010,07,09,15,49,27.80
2010,07,09,15,50,27.80
2010,07,09,15,51,27.70
2010,07,09,15,52,27.70
2010,07,09,15,53,27.60
2010,07,09,15,54,27.50
2010,07,09,15,55,27.40
2010,07,09,15,56,27.30
2010,07,09,15,57,27.40
2010,07,09,15,58,27.40
2010,07,09,15,59,27.30
2010,07,09,16,00,27.30
2010,07,09,16,01,27.30
2010,07,09,16,02,27.30
2010,07,09,16,03,27.30
2010,07,09,16,04,27.30
2010,07,09,16,05,27.30
2010,07,09,16,06,27.30
2010,07,09,16,07,27.30
2010,07,09,16,08,27.30
2010,07,09,16,09,27.20
2010,07,09,16,10,27.10
2010,07,09,16,11,27.00
2010,07,09,16,12,26.90
2010,07,09,16,13,26.80
2010,07,09,16,14,26.80
2010,07,09,16,15,26.60
2010,07,09,16,16,26.60
2010,07,09,16,17,26.60
2010,07,09,16,18,26.40
2010,07,09,16,19,26.40
2010,07,09,16,20,26.40
2010,07,09,16,21,26.40
2010,07,09,16,22,26.40
2010,07,09,16,23,26.50
2010,07,09,16,24,26.60
2010,07,09,16,25,26.60
2010,07,09,16,26,26.60
2010,07,09,16,27,26.60
2010,07,09,16,28,26.60
2010,07,09,16,29,26.60
2010,07,09,16,30,26.60
2010,07,09,16,31,26.60
2010,07,09,16,32,26.60
2010,07,09,16,33,26.60
2010,07,09,16,34,26.70
2010,07,09,16,35,26.70
2010,07,09,16,36,26.70
2010,07,09,16,37,26.70
2010,07,09,16,38,26.70
2010,07,09,16,39,26.70
2010,07,09,16,40,26.60
2010,07,09,16,41,26.60
2010,07,09,16,42,26.60
2010,07,09,16,43,26.60
2010,07,09,16,44,26.60
2010,07,09,16,45,26.60
2010,07,09,16,46,26.60
2010,07,09,16,47,26.60
2010,07,09,16,48,26.60
2010,07,09,16,49,26.60
2010,07,09,16,50,26.60
2010,07,09,16,51,26.60
2010,07,09,16,52,26.60
2010,07,09,16,53,26.60
2010,07,09,16,54,26.60
2010,07,09,16,55,26.60
2010,07,09,16,56,26.60
2010,07,09,16,57,26.60
2010,07,09,16,58,26.40
2010,07,09,16,59,26.40
2010,07,09,17,00,26.30
2010,07,09,17,01,26.20
2010,07,09,17,02,26.10
2010,07,09,17,03,26.00
2010,07,09,17,04,26.00
2010,07,09,17,05,26.00
2010,07,09,17,06,26.00
2010,07,09,17,07,26.00
2010,07,09,17,08,25.90
2010,07,09,17,09,25.90
2010,07,09,17,10,25.90
2010,07,09,17,11,25.80
2010,07,09,17,12,25.80
2010,07,09,17,13,25.70
2010,07,09,17,14,25.60
2010,07,09,17,15,25.50
2010,07,09,17,16,25.40
2010,07,09,17,17,25.40
2010,07,09,17,18,25.30
2010,07,09,17,19,25.20